Simultaneous Nadir Overpasses (SNOs) Predictions

Prediction of SNOs between GOES-14 and NOAA-20 Satellite Orbit:

Table of predicted SNOs for the next 14.0 days since TLE Epoch: 12/13/2019
Index Date Time (GOES-14) GOES-14 Lat,Lon NOAA-20 Lat,Lon Distance(km) Time Diff (sec)
1 12/13/2019 20:28:08 -0.01,-104.04 0.00,-105.85 200.39 0
2 12/14/2019 20:10:36 -0.02,-104.05 0.62,-101.23 322.05 80
3 12/16/2019 08:32:25 0.01,-104.28 0.51,-106.50 253.50 80
4 12/17/2019 08:11:00 0.02,-104.27 -0.52,-101.97 262.52 80
5 12/18/2019 20:32:56 0.00,-104.03 -0.73,-107.26 368.32 80
6 12/19/2019 20:16:51 -0.00,-104.04 0.30,-102.73 148.89 80
7 12/21/2019 08:38:39 -0.01,-104.29 0.82,-108.01 424.34 80
8 12/22/2019 08:17:15 0.00,-104.28 -0.21,-103.48 92.05 80
9 12/24/2019 20:20:25 0.00,-104.03 -0.06,-104.23 23.07 80
10 12/25/2019 20:04:20 -0.01,-104.04 0.98, -99.70 494.18 80
11 12/27/2019 08:26:09 -0.00,-104.29 0.15,-104.98 78.33 80




NCC Satellite Simultaneous Nadir Overpasses (SNOs) Prediction Service
